DECAYED
Showing default

QUANTUTONG 1, 43158 (Decayed)

Orbit data source: Space-Track

QUANTUTONG 1, 43158 was a payload satellite owned by QuanTuTong (CN) in SSO that was launched on Fri, 19 Jan 2018 UTC via a CHANG ZHENG 11 launch vehicle from the Jiuquan Satellite Launch Center, China (JSC). Payload-class satellites include a variety of spacecraft equipped with specific instruments for various scientific and technological missions. These include communications satellites like Starlink; space stations such as the ISS; scientific satellites like the Hubble; Earth observation satellites from companies like Planet Labs, Umbra, and HawkEye 360; GPS; miniature CubeSats for education and research; and military/defense satellites.

Loading next visibility...
Identifier
43158, 2018-008D
Orbit
Decayed
Last TLE update
9 months ago
Origin
Flag of CNFull Map Network Co. (CN / PRC)
Manufacturer
Changsha Tianyi
Mission
Decayed Commercial Navigation
Bus & Motor
CUBESAT 6U, Unknown motor
Mass
8 kg wet, 8 kg dry
Launch date (UTC)
2018-01-19 (7 years ago)
Launch vehicle
CHANG ZHENG 11
Launch site
Jiuquan Satellite Launch Center, China (JSC)
Object type
Payload
Rocket body
Debris
Shape & HBR
Box, 0.3 m
Radar Cross Section
0.080 m², Medium (>0.1 m² and < 1m²)

Expand to show TLE details & history

TLE from 9 months ago
0 QUANTUTONG 1
1 43158U 18008D   24289.57081905  .01911305  30434-2  22393-2 0  9995
2 43158  97.2486 341.2486 0006509 265.8690  94.1850 16.09457699373267
Epoch: 2024-10-15T13:41Z
TLE epoch observation values (Epoch: 2024-10-15T13:41:58.765Z)
Latitude
-0.00003°
Longitude
111.17205°
Altitude
251.864 km
Speed
7.756 km/s
True Right ascension
22h 44m 59s
True Declination
0° 00' 00"
Sunlit
Object was in full shadow at epoch
Visualization orbit readout
Visualization observer readout
Orbital elements
Apogee altitude
249.483 km
Perigee altitude
240.861 km
Semi-major axis
6,623.309 km
Eccentricity
0.00065
Inclination
97.2486°
RAAN
341.2486°
Arg. of periapsis
265.869°
True anomaly
Unknown
Mean anomaly
94.185°
Eccentric anomaly
Unknown
Mean motion
4.02653 °/min
Orbital period
89.41 mins
BSTAR
0.0022393
Loading maneuver chart data...
Loading SW <> Apogee altitude chart data...
Loading historical data...
Loading historical data...
Loading historical data...
Loading historical data...
Loading historical data...
Loading historical data...
Loading historical data...

QUANTUTONG 1 Visibility forecast

Observer location: undefined°, undefined°

Span
Click to sort rows by Start time (UTC) header in descending order
Start Az.
Max El. time (UTC)
Max El. Az.
Max El.
End time (UTC)
End Az.
6 mins2025-07-03 13:09:45.289Z273.373° WNW2025-07-03 13:11:45.289Z343.717° N37.752°2025-07-03 13:15:45.289Z50.166° ENE
6 mins2025-07-03 13:22:45.289Z48.849° ENE2025-07-03 13:26:45.289Z331.544° NNW37.468°2025-07-03 13:28:45.289Z268.304° W
14 mins2025-07-03 17:04:45.289Z338.427° N2025-07-03 17:14:45.289Z37.153° NE40.5°2025-07-03 17:18:45.289Z326.389° NNW
8 mins2025-07-03 20:59:45.289Z352.178° N2025-07-03 21:02:45.289Z348.112° N36.564°2025-07-03 21:07:45.289Z355.979° N
13 mins2025-07-03 22:52:45.289Z344.035° N2025-07-03 22:55:45.289Z281.74° WNW40.914°2025-07-03 23:05:45.289Z359.441° N
9 mins2025-07-04 00:50:45.289Z12.137° NNE2025-07-04 00:54:45.289Z351.955° N29.765°2025-07-04 00:59:45.289Z33.891° NE
4 mins2025-07-04 04:35:45.289Z73.871° E2025-07-04 04:36:45.289Z36.904° NE33.208°2025-07-04 04:39:45.289Z330.566° NNW
4 mins2025-07-04 04:51:45.289Z345.282° N2025-07-04 04:53:45.289Z34.707° NE34.053°2025-07-04 04:55:45.289Z108.91° ESE
13 mins2025-07-04 08:29:45.289Z177.965° S2025-07-04 08:36:45.289Z83.275° E44.815°2025-07-04 08:42:45.289Z183.916° SSW
|